DW9493 Weather Reports


Display with metric or nautical units.
time (UTC)temp
F
wind
direction
speed
MPH
gust
MPH
rain 1hr
in
rain 24hr
in
rain mn
in
humidity
%
barometer
mb
20260505124553 31 35 0.0 5.0 0.00 0.13 0.01 96 1015.3
20260505123553 31 8 2.0 6.0 0.00 0.13 0.01 96 1015.3
20260505123026 31 329 1.0 5.0 0.00 0.13 0.01 96 1015.2
20260505121554 31 276 1.0 4.0 0.00 0.13 0.01 96 1015.3
20260505120554 31 44 2.0 9.0 0.00 0.13 0.01 95 1015.3
20260505115529 32 349 1.0 6.0 0.01 0.13 0.01 95 1015.2
20260505114519 32 311 0.0 2.0 0.01 0.13 0.01 96 1015.0
20260505113513 32 34 1.0 6.0 0.01 0.13 0.01 95 1014.9
20260505113439 32 318 2.0 9.0 0.01 0.13 0.01 95 1014.8
20260505111511 33 337 2.0 8.0 0.01 0.13 0.01 95 1014.5
20260505110509 34 354 1.0 9.0 0.01 0.13 0.01 95 1014.5
20260505100450 38 20 1.0 3.0 0.00 0.12 0.00 95 1013.8
20260505095450 38 322 1.0 5.0 0.00 0.12 0.00 95 1013.8
20260505094447 39 26 0.0 4.0 0.00 0.12 0.00 95 1013.8
20260505093927 39 321 0.0 0.0 0.00 0.12 0.00 95 1013.9
20260505092448 39 322 0.0 1.0 0.00 0.12 0.00 95 1013.9
20260505091447 39 321 0.0 2.0 0.00 0.12 0.00 95 1014.2
20260505090447 39 322 0.0 3.0 0.00 0.12 0.00 95 1014.0
20260505085447 39 321 0.0 2.0 0.00 0.12 0.00 95 1013.9
20260505084447 39 322 0.0 4.0 0.00 0.12 0.00 95 1014.0
20260505083446 38 322 2.0 4.0 0.00 0.12 0.00 95 1014.2
20260505082448 38 316 3.0 5.0 0.00 0.12 0.00 94 1014.3
20260505081448 39 316 3.0 6.0 0.00 0.12 0.00 94 1014.3
20260505080447 39 336 2.0 5.0 0.00 0.12 0.00 94 1014.3
20260505075446 39 326 1.0 3.0 0.00 0.12 0.00 94 1014.4
20260505074924 39 299 2.0 4.0 0.00 0.12 0.00 94 1014.4
20260505073441 39 316 3.0 5.0 0.00 0.12 0.00 94 1014.5
20260505072444 38 319 1.0 4.0 0.00 0.12 0.00 95 1014.8
20260505071441 38 315 0.0 1.0 0.00 0.12 0.00 94 1014.5
20260505070441 38 255 0.0 0.0 0.00 0.12 0.00 94 1014.7
20260505065916 38 255 0.0 1.0 0.00 0.12 0.00 94 1014.8
20260505064440 38 255 0.0 1.0 0.00 0.12 0.00 94 1014.8
20260505063439 38 255 0.0 1.0 0.00 0.12 0.00 94 1014.8
20260505062441 38 254 0.0 1.0 0.00 0.12 0.00 94 1014.8
20260505061439 38 255 0.0 1.0 0.00 0.12 0.00 94 1014.7
20260505060440 38 255 0.0 0.0 0.00 0.12 0.00 94 1014.8
20260505055440 38 255 0.0 0.0 0.00 0.12 0.12 94 1014.8
20260505054439 38 255 0.0 0.0 0.00 0.12 0.12 94 1014.8
20260505054344 38 255 0.0 0.0 0.00 0.12 0.12 94 1014.9
20260505052910 38 255 0.0 1.0 0.00 0.12 0.12 94 1014.9
20260505051910 38 255 0.0 1.0 0.00 0.12 0.12 94 1014.9
20260505050429 38 255 0.0 0.0 0.00 0.12 0.12 93 1014.9
20260505050355 38 255 0.0 0.0 0.00 0.12 0.12 93 1015.0
20260505041424 40 255 0.0 3.0 0.07 0.12 0.12 92 1015.3
20260505040422 40 99 0.0 4.0 0.10 0.12 0.12 92 1015.7
20260505035421 39 15 0.0 8.0 0.11 0.12 0.12 92 1015.4
20260505034419 40 96 3.0 9.0 0.11 0.12 0.12 91 1014.9
20260505033419 40 119 1.0 5.0 0.11 0.12 0.12 90 1015.2
20260505032416 40 108 0.0 2.0 0.07 0.08 0.09 88 1015.7
20260505031413 41 283 2.0 6.0 0.03 0.04 0.05 85 1015.8
20260505030848 42 311 3.0 7.0 0.01 0.02 0.02 84 1015.6
20260505025413 44 328 0.0 2.0 0.00 0.01 0.01 84 1015.2
20260505024906 43 147 0.0 1.0 0.00 0.01 0.01 82 1014.9
20260505023412 43 129 1.0 4.0 0.00 0.01 0.01 81 1014.7
20260505022411 43 129 0.0 3.0 0.00 0.01 0.01 81 1014.5
20260505021409 44 106 0.0 1.0 0.00 0.01 0.01 80 1014.3
20260505020410 44 98 0.0 4.0 0.00 0.01 0.01 79 1014.0
20260505015836 44 67 0.0 2.0 0.00 0.01 0.01 78 1014.2
20260505014353 44 110 0.0 2.0 0.00 0.01 0.01 78 1014.2
20260505013353 44 54 0.0 1.0 0.00 0.01 0.01 78 1013.8
20260505012347 45 100 0.0 3.0 0.00 0.01 0.01 78 1014.0
20260505011346 45 113 0.0 2.0 0.00 0.01 0.01 77 1014.2
20260505010344 45 109 0.0 2.0 0.00 0.01 0.01 77 1014.2
20260505005341 45 82 1.0 4.0 0.00 0.01 0.01 76 1014.2
20260505004339 46 30 1.0 3.0 0.00 0.01 0.01 76 1014.0
20260505003326 45 110 1.0 6.0 0.00 0.01 0.01 77 1014.2
20260505002325 46 68 3.0 8.0 0.00 0.01 0.01 76 1014.2
20260505001325 47 132 2.0 7.0 0.01 0.01 0.01 70 1014.7
20260505000323 47 103 1.0 5.0 0.01 0.01 0.01 69 1014.8
20260504235807 47 222 3.0 6.0 0.01 0.01 0.01 67 1014.7
20260504234321 47 228 2.0 5.0 0.01 0.01 0.01 68 1014.5
20260504233319 47 266 1.0 5.0 0.01 0.01 0.01 69 1014.2
20260504232320 47 317 3.0 11.0 0.01 0.01 0.01 68 1014.2
20260504231319 49 308 3.0 10.0 0.00 0.00 0.00 62 1013.9
20260504230317 49 305 5.0 11.0 0.00 0.00 0.00 54 1013.9
20260504225319 50 301 2.0 11.0 0.00 0.00 0.00 54 1013.7
20260504224317 50 335 4.0 14.0 0.00 0.00 0.00 53 1013.4
20260504223316 50 280 7.0 14.0 0.00 0.00 0.00 54 1013.3
20260504222315 51 345 7.0 16.0 0.00 0.00 0.00 51 1012.9
20260504221750 52 311 7.0 17.0 0.00 0.00 0.00 49 1013.2
20260504220313 55 12 6.0 13.0 0.00 0.00 0.00 42 1013.0
20260504215313 56 321 2.0 7.0 0.00 0.00 0.00 38 1012.8
20260504214315 56 355 3.0 8.0 0.00 0.00 0.00 38 1012.8
20260504213313 58 29 1.0 3.0 0.00 0.00 0.00 36 1012.9
20260504212312 58 116 2.0 6.0 0.00 0.00 0.00 33 1012.4
20260504211310 58 109 2.0 5.0 0.00 0.00 0.00 34 1012.4
20260504210310 58 70 0.0 5.0 0.00 0.00 0.00 34 1012.7
20260504205309 57 314 1.0 5.0 0.00 0.00 0.00 35 1012.8
20260504204307 58 354 1.0 5.0 0.00 0.00 0.00 38 1013.0
20260504203301 57 47 2.0 8.0 0.00 0.00 0.00 38 1013.3
20260504202300 56 326 3.0 10.0 0.00 0.00 0.00 43 1013.7
20260504202238 55 280 5.0 16.0 0.00 0.00 0.00 44 1013.9
20260504200727 53 256 6.0 13.0 0.00 0.00 0.00 50 1013.9
20260504195241 52 319 7.0 14.0 0.00 0.00 0.00 54 1014.4
20260504194241 51 284 5.0 13.0 0.00 0.00 0.00 58 1014.8
20260504193242 52 311 7.0 23.0 0.00 0.00 0.00 48 1014.5
20260504192243 55 291 1.0 5.0 0.00 0.00 0.00 39 1014.4
20260504191242 55 31 3.0 9.0 0.00 0.00 0.00 39 1014.0
20260504190715 55 39 2.0 8.0 0.00 0.00 0.00 39 1013.9
20260504185242 54 89 3.0 9.0 0.00 0.00 0.00 40 1014.3
20260504184224 53 49 4.0 16.0 0.00 0.00 0.00 42 1014.3
20260504183657 54 84 6.0 15.0 0.00 0.00 0.00 38 1014.4
20260504182224 55 255 8.0 17.0 0.00 0.00 0.00 34 1014.2
20260504181224 56 263 5.0 15.0 0.00 0.00 0.00 32 1013.9
20260504180223 56 305 7.0 16.0 0.00 0.00 0.00 33 1013.8
20260504175220 57 295 5.0 13.0 0.00 0.00 0.00 34 1013.8
20260504174220 57 332 5.0 14.0 0.00 0.00 0.00 32 1013.8
20260504173208 57 338 5.0 15.0 0.00 0.00 0.00 32 1013.9
20260504172206 57 354 6.0 16.0 0.00 0.00 0.00 32 1014.3
20260504171205 57 345 9.0 20.0 0.00 0.00 0.00 32 1014.3
20260504170205 58 321 9.0 18.0 0.00 0.00 0.00 32 1014.3
20260504160159 56 250 3.0 11.0 0.00 0.00 0.00 35 1015.0
20260504150142 54 262 2.0 6.0 0.00 0.00 0.00 37 1015.3
20260504141136 50 247 1.0 5.0 0.00 0.00 0.00 38 1015.4
20260504140135 46 302 0.0 2.0 0.00 0.00 0.00 46 1015.3
20260504130124 40 321 0.0 2.0 0.00 0.00 0.00 50 1015.0